San Diego Classic - Holiday Cup - Inventory

Station: INVENTORY - T Race

Distance: 10 Miles    

Release: 03-Aug-2017 16:00

Weather Release:    Arrival:

Wind at Release:     Wind at Arrival:

Temp at Release: °    Temp at Arrival: °

Lofts: 129

Birds: 700

Clocked: 599

Good Luck to Everyone!
Drops Pos Breeder Pigeon Name Color Sex Ent Arrival Speed To Win Eligible RaceAvg Speed
290 Jalisco - CA 1961-AU17-JALI BBSP H 4 18:27:28.60 119.341 01:41:54 Yes
291 El Dorado Lofts Canada - BC 9339-CU17-CRPU RCSP H 4 18:27:30.50 119.315 01:41:56 Yes
292 Dehesa Valley Lofts - CA 1368-AU17-SD BB H 2 18:27:31.70 119.299 01:41:57 Yes
293 Nanez Family Lofts - WI 4568-AU17-NANE BB H 5 18:27:36.30 119.237 01:42:02 Yes
294 Dehesa Valley Lofts - CA 1374-AU17-SD BB H 3 18:27:37.50 119.221 01:42:03 Yes
295 Byron C. Weaver - FL 52618-AU17-ARPU Sister BB H 1 18:27:42.50 119.154 01:42:08 Yes
296 Bird Love To Fly - CA 33082-AU17-JEDD BB H 5 18:27:48.80 119.069 01:42:14 Yes
296 Rickyracers - CA 0156-AU17-LAND BB H 5 18:27:48.80 119.069 01:42:14 Yes
298 Bill Dozier - TX 3701-AU17-TEX BLK H 3 18:27:51.40 119.034 01:42:17 Yes
299 New Generation Loft - CA 1946-AU17-JALI BC H 4 18:27:54.40 118.994 01:42:20 Yes
300 No Limit Loft - CA 6407-AU17-HP BBWF H 6 18:27:55.50 118.979 01:42:21 Yes
301 Sterchi & Bieche - CA 1745-AU17-SR BC H 1 18:27:55.90 118.974 01:42:21 Yes
302 No Limit Loft - CA 7845-AU17-NYK BB H 7 18:27:59.90 118.920 01:42:25 Yes
302 Rick Barker - CA 0057-AU17-VIP BB H 5 18:27:59.90 118.920 01:42:25 Yes
304 Sandstrom Brothers Loft - MN 0795-AU17-SBL BCWF H 3 18:28:01.80 118.895 01:42:27 Yes
305 7-11 Syndicate - CA 0934-AU17-SD BBSP H 7 18:28:05.50 118.845 01:42:31 Yes
306 7 Eleven Family Loft - CT 0726-IF17-FL BB H 4 18:28:09.00 118.799 01:42:34 Yes
307 Winnerscupusa.Com - OK 43736-AU17-ARPU BBWF H 5 18:28:10.70 118.776 01:42:36 Yes
308 Milestone Loft - CA 0190-AU17-SD BB H 7 18:28:19.70 118.656 01:42:45 Yes
309 Milestone Loft - CA 1590-AU17-SD BB H 8 18:28:31.90 118.493 01:42:57 Yes
310 Flying D Loft - TX 0178-AU17-FLYD RC H 4 18:28:32.40 118.487 01:42:58 Yes
311 America\'s Dream Loft - IL 0211-AU17-ADL DC H 5 18:28:35.90 118.440 01:43:01 Yes
312 Nemeth Family Loft - CA 8770-AU17-BON BC H 5 18:28:36.60 118.431 01:43:02 Yes
313 De La O -Lopez - CA 4183-AU17-COOK BB H 4 18:28:37.40 118.420 01:43:03 Yes
314 Tim Brandon - CA 0184-AU17-OCF DC H 3 18:28:41.90 118.360 01:43:07 Yes
315 Venn Family Loft - WY 1922-AU17-VENN BB H 4 18:28:45.40 118.314 01:43:11 Yes
316 Tim Brandon - CA 0194-AU17-OCF BB H 4 18:28:45.50 118.313 01:43:11 Yes
317 America\'s Dream Loft - IL 0216-AU17-ADL BB H 6 18:28:46.30 118.302 01:43:12 Yes
318 Crescendo Loft - NM 18410-AU17-AA BB H 5 18:28:49.80 118.256 01:43:15 Yes
319 Christian & Adam Gluck - CA 0557-AU17-OBC BBWF H 5 18:28:50.60 118.245 01:43:16 Yes
320 Byron C. Weaver - FL 52617-AU17-ARPU Brother NNWF C 2 18:28:53.20 118.211 01:43:19 Yes
321 Kolvenbag & Son - PA 1178-IF17-KOLV THE GHOST WHT H 6 18:28:56.40 118.168 01:43:22 Yes
322 Michael Groe - CA 8965-AU17-JEDD BB H 2 18:28:58.80 118.137 01:43:24 Yes
323 Duane Gragg - CA 0703-AU17-KEYH BB H 6 18:28:59.70 118.125 01:43:25 Yes
324 Dehesa Valley Lofts - CA 1373-AU17-SD BB H 4 18:29:00.50 118.114 01:43:26 Yes
325 America\'s Dream Loft - IL 0210-AU17-ADL BB H 7 18:29:01.00 118.108 01:43:26 Yes
326 Crescendo Loft - NM 18413-AU17-AA BC H 6 18:29:02.30 118.090 01:43:28 Yes
327 De La O -Lopez - CA 1529-AU17-TCH BB H 5 18:29:03.40 118.076 01:43:29 Yes
328 Tenbrink Irma & Eddie - CA 0337-AU17-VIP DCWF H 3 18:29:10.20 117.986 01:43:36 Yes
329 No Limit Loft - CA 7919-AU17-NYK BB H 8 18:29:13.90 117.937 01:43:39 Yes
330 Sandstrom Brothers Loft - MN 0754-AU17-SBL BB H 4 18:29:15.40 117.918 01:43:41 Yes
331 Duane Gragg - CA 0753-AU17-KEYH BB H 7 18:29:15.90 117.911 01:43:41 Yes
332 7 Eleven Family Loft - CT 0715-IF17-FL BC H 5 18:29:18.50 117.877 01:43:44 Yes
332 Hacienda Dos Loft - CA 0394-AU17-SLO BC H 1 18:29:18.50 117.877 01:43:44 Yes
334 No Limit Loft - CA 6408-AU17-HP BBWF H 9 18:29:22.50 117.824 01:43:48 Yes
335 Tim Brandon - CA 0195-AU17-OCF BC H 5 18:29:31.60 117.705 01:43:57 Yes
336 Steve Lance - CA 0970-AU17-CTRP SLT H 3 18:29:37.00 117.634 01:44:02 Yes
337 John Karnofel - CA 0767-AU17-KFL BB H 1 18:29:41.20 117.579 01:44:07 Yes
338 Doves Landing - CA 1100-AU17-SD BB H 1 18:29:44.00 117.542 01:44:10 Yes
339 Venn Kids - WY 1829-AU17-VENN BC H 5 18:29:52.00 117.438 01:44:17 Yes
340 Dream Team - VT 0728-AU17-JCZL BB H 6 18:30:07.70 117.233 01:44:33 Yes
341 Turk Brand Syndicate - IA 1084-AU17-ER BB H 4 18:30:11.70 117.181 01:44:37 Yes
342 Tanai Kantisiri - CA 2933-AU17-COM DC H 5 18:30:21.00 117.060 01:44:47 Yes
343 Nanez Family Lofts - WI 4453-AU17-NANE BB H 6 18:30:25.20 117.006 01:44:51 Yes
344 Pleasant Task Farm - PA 0776-AU17-PTF BCWF H 4 18:30:25.80 116.998 01:44:51 Yes
345 7-11 Syndicate - CA 0931-AU17-SD BB H 8 18:30:26.30 116.991 01:44:52 Yes
346 Paco Loft - CA 0750-AU17-PACO BB H 4 18:30:32.80 116.907 01:44:58 Yes
347 Nicholls Lofts - BC 9134-CU17-CRPU BCSP H 3 18:30:38.70 116.831 01:45:04 Yes
348 Anthony Cuba - CA 3172-AU17-HP BB H 3 18:31:37.00 116.082 01:46:03 Yes
349 Mcconnell Loft - FL 1841-AU17-GHC BC H 2 18:31:38.00 116.069 01:46:04 Yes
350 Milestone Loft - CA 0156-AU17-SD BB H 9 18:31:42.00 116.018 01:46:08 Yes
351 Genesis Syndicate Loft - AZ 0421-AU17-SYNL BB H 4 18:31:43.90 115.994 01:46:09 Yes
352 We Be She's - NV 17184-AU17-TBW BB H 5 18:31:56.70 115.831 01:46:22 Yes
353 Modud - CO 17177-AU17-PUEB BB H 3 18:32:09.60 115.668 01:46:35 Yes
354 Hawaiian Express - CA 0013-AU17-TONG BB H 3 18:32:11.80 115.640 01:46:37 Yes
355 Nemeth Family Loft - CA 9077-AU17-BON BC H 6 18:32:16.40 115.582 01:46:42 Yes
356 Bird Love To Fly - CA 0327-AU17-VIP BB H 6 18:32:37.70 115.313 01:47:03 Yes
357 Barry Venn - WY 1920-AU17-VENN BB H 2 18:33:43.40 114.491 01:48:09 Yes
358 Genesis Syndicate Loft - AZ 0451-AU17-SYNL BC H 5 18:35:17.90 113.330 01:49:43 Yes
359 Dehesa Valley Lofts - CA 1369-AU17-SD BB H 5 18:35:26.40 113.227 01:49:52 Yes
360 Bird Love To Fly - CA 20084-AU17-JEDD BBWF H 7 18:36:43.10 112.303 01:51:09 Yes
361 Shiloft - PA 5029-AU17-ERIE BC H 3 18:36:45.40 112.276 01:51:11 Yes
362 Bryan Maier - PA 0368-AU17-MAIE BCWF H 4 18:36:47.20 112.254 01:51:13 Yes
Los Banditos - CA 2445-AU17-LBAN BC H 18:36:47.70 112.248 Yes
363 English Syn 3 - LA 0308-AU17-MET BC H 2 18:36:50.00 112.221 01:51:16 Yes
364 Mcconnell Loft - FL 1813-AU17-GHC BB H 3 18:36:52.30 112.194 01:51:18 Yes
365 Avelino Loft - CA 7049-AU17-HAN DKSP H 2 18:36:55.70 112.153 01:51:21 Yes
366 Rick Barker - CA 0014-AU17-VIP BBSP H 6 18:36:57.60 112.130 01:51:23 Yes
367 Mesopotamia Loft - MN 0324-AU17-MESO GRIZ H 3 18:36:59.50 112.108 01:51:25 Yes
368 A P C Loft - TX 17221-AU17-APC BB H 6 18:37:00.80 112.092 01:51:26 Yes
369 F & D Lofts - AB 17116-AU17-FD BB H 2 18:37:06.60 112.023 01:51:32 Yes
370 Team Phoenix - AZ 33613-AU17-MEX BBSP H 5 18:37:07.90 112.008 01:51:33 Yes
371 Nemelka Racing Pigeon Loft - UT 7103-AU17-NRPL 4010 x Miss Beautiful BC H 5 18:38:00.30 111.389 01:52:26 Yes
372 J & M Partridge Loft - CA 0556-AU17-PASO BC H 3 18:38:02.20 111.367 01:52:28 Yes
373 Humberto Munoz - EM 65388-AU17-MEX BC H 3 18:38:10.80 111.266 01:52:36 Yes
374 A V A Lofts - CA 26382-AU17-JEDD BB H 2 18:39:00.70 110.684 01:53:26 Yes
375 Genesis Syndicate Loft - AZ 0436-AU17-SYNL BC H 6 18:39:10.50 110.570 01:53:36 Yes
376 Rick Barker - CA 0067-AU17-VIP BBWF H 7 18:39:13.30 110.538 01:53:39 Yes
377 The Association - CA 0772-AU17-JEDD C'mon 772 BCWF H 6 18:39:14.70 110.522 01:53:40 Yes
378 Hugo Avila Loft - CA 0286-AU17-SD BBSP H 1 18:39:15.70 110.510 01:53:41 Yes
379 Hawaiian Express - CA 0111-AU17-HAWE BBWF H 4 18:39:31.40 110.329 01:53:57 Yes
380 Sterchi & Bieche - CA 1783-AU17-SR BB H 2 18:39:42.40 110.202 01:54:08 Yes
381 7 Eleven Family Loft - CT 0722-IF17-FL BB H 6 18:39:42.80 110.197 01:54:08 Yes
382 Humberto Munoz - EM 65375-AU17-MEX BB H 4 18:39:46.70 110.153 01:54:12 Yes
383 Bill Dozier - TX 3711-AU17-TEX BBSP H 4 18:39:52.10 110.091 01:54:18 Yes
384 Byron C. Weaver - FL 52614-AU17-ARPU Sister Too BB H 3 18:39:59.30 110.008 01:54:25 Yes
385 J & M Partridge Loft - CA 0800-AU17-PASO BBWF H 4 18:40:03.90 109.955 01:54:29 Yes
386 Pairan Racing Loft - OH 0333-AU17-LFO BC H 5 18:40:24.40 109.721 01:54:50 Yes
387 English Syn 3 - LA 0317-AU17-MET BC H 3 18:40:26.80 109.694 01:54:52 Yes
388 Jenkins Racing - CA 0002-AU17-WEF 99 X 2146 BB H 4 18:40:29.90 109.658 01:54:55 Yes

There are 704 bird records

Note: These Race Results are unofficial and subject to change until verified by the Race Committee and declared final.